Location: Elstree
(51.6403°N, 0.2969°W)
Time: 04:59:49
(UTC+00:00)

deb Delta 107 - Pass Details

Date: 30 January 2022
Orbit: 707 x 861 km, 97.7° (Epoch: 23 May)

Event Time Altitude Azimuth Distance (km) Brightness Sun altitude
Rises 05:42:35 0° 23° (NNE) 3,119 ? -18.6°
Reaches altitude 10° 05:45:15 10° 37° (NE) 2,202 ? -18.2°
Maximum altitude 05:49:08 24° 91° (E) 1,479 ? -17.6°
Drops below altitude 10° 05:53:03 10° 145° (SE) 2,233 ? -17.0°
Sets 05:55:46 0° 159° (SSE) 3,173 ? -16.6°
